Meacham, OR

6:20 AM PDT on March 24, 2017 (GMT -0700)
Meacham

Weather History for KMEH - April, 2013

Change the Weather History Date:

Thursday, April 18, 2013

  Actual Average Record
Temperature  
Mean Temperature 39 °F -  
Max Temperature 53 °F 51 °F 71 °F (2016)
Min Temperature 26 °F 27 °F 21 °F (1998)
Degree Days  
Heating Degree Days 26    
Moisture  
Dew Point 32 °F    
Average Humidity 73    
Maximum Humidity 92    
Minimum Humidity 50    
Precipitation  
Precipitation 0.08 in - - ()
Sea Level Pressure  
Sea Level Pressure 30.34 in    
Wind  
Wind Speed 1 mph (WNW)    
Max Wind Speed 6 mph    
Max Gust Speed -    
Visibility 9 miles    
Events Rain    
Averages and records for this station are not official NWS values.
T = Trace of Precipitation, MM = Missing Value Source: NWS Daily Summary

Daily Weather History Graph

Daily Weather History Graph

Search for Another Location

Airport or City:

Trip Planner

Search our weather history database for the weather conditions in past years. The results will help you decide how hot, cold, wet, or windy it might be!

Date:

Astronomy

Apr. 18, 2013 Rise Set
Actual Time 6:02 AM PDT 7:44 PM PDT
Civil Twilight 5:31 AM PDT 8:15 PM PDT
Nautical Twilight 4:52 AM PDT 8:53 PM PDT
Astronomical Twilight 4:11 AM PDT 9:35 PM PDT
Moon 12:15 PM PDT (4/18) 2:05 AM PDT (4/18)
Length of Visible Light 14h 44m
Length of Day
13h 41m
First Quarter, 53% of the Moon is Illuminated
Apr 18
First Quarter
Apr 25
Full
May 2
Last Quarter
May 9
New
May 17
First Quarter

Hourly Weather History & Observations

Time (PDT) Temp. Windchill Dew Point Humidity Pressure Visibility Wind Dir Wind Speed Gust Speed Precip Events Conditions
12:56 AM 28.0 °F - 21.0 °F 75% 30.38 in 10.0 mi Calm Calm - N/A   Overcast
1:56 AM 27.0 °F - 19.9 °F 75% 30.37 in 10.0 mi Calm Calm - N/A   Mostly Cloudy
2:56 AM 26.1 °F - 21.0 °F 81% 30.36 in 10.0 mi Calm Calm - N/A   Mostly Cloudy
3:56 AM 28.0 °F - 23.0 °F 81% 30.36 in 10.0 mi Calm Calm - N/A   Overcast
4:56 AM 30.0 °F - 24.1 °F 79% 30.37 in 10.0 mi Calm Calm - N/A   Overcast
5:56 AM 30.9 °F - 25.0 °F 79% 30.37 in 10.0 mi Calm Calm - N/A   Overcast
6:56 AM 32.0 °F - 26.1 °F 79% 30.39 in 10.0 mi Calm Calm - N/A   Overcast
7:30 AM 33.8 °F - 28.4 °F 81% 30.33 in 10.0 mi Calm Calm - N/A   Overcast
7:56 AM 35.1 °F - 28.9 °F 78% 30.40 in 10.0 mi Calm Calm - N/A   Overcast
8:56 AM 37.0 °F - 30.9 °F 79% 30.41 in 10.0 mi Calm Calm - N/A   Overcast
9:56 AM 37.0 °F - 30.9 °F 79% 30.42 in 10.0 mi Calm Calm - N/A   Overcast
10:56 AM 39.0 °F - 30.9 °F 73% 30.43 in 10.0 mi Calm Calm - N/A   Overcast
11:56 AM 41.0 °F 39.0 °F 32.0 °F 70% 30.42 in 10.0 mi Variable 3.5 mph - N/A   Overcast
12:56 PM 44.1 °F 42.5 °F 32.0 °F 63% 30.40 in 10.0 mi Variable 3.5 mph - N/A   Overcast
1:27 PM 44.6 °F 43.1 °F 30.2 °F 57% 30.33 in 10.0 mi Variable 3.5 mph - N/A   Overcast
1:56 PM 46.9 °F - 32.0 °F 56% 30.37 in 10.0 mi Variable 3.5 mph - N/A   Overcast
2:56 PM 50.0 °F - 34.0 °F 54% 30.35 in 10.0 mi Variable 5.8 mph - N/A   Mostly Cloudy
3:56 PM 52.0 °F - 34.0 °F 50% 30.33 in 10.0 mi Variable 4.6 mph - N/A   Mostly Cloudy
4:56 PM 50.0 °F - 34.0 °F 54% 30.32 in 10.0 mi Variable 3.5 mph - N/A   Overcast
5:56 PM 48.9 °F - 35.1 °F 59% 30.32 in 10.0 mi Calm Calm - N/A   Overcast
6:56 PM 48.9 °F - 36.0 °F 61% 30.30 in 10.0 mi Variable 3.5 mph - N/A   Overcast
7:56 PM 48.0 °F - 37.0 °F 66% 30.29 in 10.0 mi WNW 3.5 mph - N/A   Overcast
8:56 PM 45.0 °F - 36.0 °F 71% 30.30 in 10.0 mi Calm Calm - N/A   Mostly Cloudy
9:56 PM 43.0 °F 41.3 °F 37.9 °F 82% 30.31 in 6.0 mi WNW 3.5 mph - 0.00 in Rain Light Rain
10:03 PM 42.8 °F - 39.2 °F 87% 30.26 in 7.0 mi Calm Calm - 0.01 in Rain Light Rain
10:40 PM 42.8 °F - 39.2 °F 87% 30.25 in 7.0 mi Calm Calm - 0.03 in Rain Light Rain
10:56 PM 42.1 °F 40.2 °F 39.0 °F 89% 30.29 in 7.0 mi Variable 3.5 mph - 0.04 in Rain Light Rain
11:15 PM 42.8 °F - 39.2 °F 87% 30.24 in 8.0 mi Calm Calm - 0.01 in Rain Light Rain
11:56 PM 42.1 °F 40.2 °F 39.9 °F 92% 30.26 in 9.0 mi Variable 3.5 mph - 0.04 in Rain Light Rain